CORVUS BC2

Last updated on Sat Aug 15 2026 00:03:44 GMT+0000 (Coordinated Universal Time)

1 42846U 17042X 26226.38112296 .00001819 00000+0 12673-3 0 9998 2 42846 97.4135 25.5032 0011353 272.8578 87.1351 15.06600832495828
UTC large
Height (km)
Speed (km/s)
/
Latitude / Longitude
Inclination (degrees)
Orbital Period (minutes)
Azimuth
Elevation
Range (km)
Doppler Factor

Next 0 passes for location: London (51.5072 / 0.1276)

No passes found over London.
CORVUS BC2